RH
13 17 15 23 86 100 95 50 41 37 35 39 38 45 32 29 60 35 29 35 39 38 42 43 41 28 31 32 38 38 44 49 48 60 69 64 55 68 68 65 65 64 56 49 52 48 41 38 36
10 10 13 51 100 99 48 17 16 24 22 29 28 29 37 21 19 40 34 26 36 40 42 45 50 35 33 35 38 37 35 41 51 54 50 48 50 57 70 84 72 57 51 49 46 46 46 40 59
19 14 23 95 100 76 21 12 14 14 16 18 30 30 19 18 18 27 48 26 31 41 42 46 55 59 45 38 38 40 40 42 44 43 50 58 52 51 64 75 79 68 77 73 60 50 45 47 73
45 30 63 100 84 40 14 10 15 17 14 14 15 26 25 16 18 23 51 33 28 39 43 47 50 56 64 68 43 42 47 51 56 58 57 49 55 48 50 56 72 82 71 76 70 60 45 66 78
33 82 98 96 24 24 13 10 11 17 17 14 14 20 22 21 19 21 46 39 27 38 42 44 50 52 55 63 73 58 42 46 49 46 47 50 54 52 52 63 70 74 57 63 64 45 48 77 82
72 98 97 100 23 44 15 10 14 11 13 17 17 14 16 26 22 22 30 47 29 36 42 43 44 51 65 70 68 69 64 50 46 48 44 47 47 45 52 63 73 66 50 56 56 52 54 68 73
99 89 100 97 58 14 9 7 10 10 10 14 19 18 17 23 27 24 25 49 39 32 41 36 43 54 71 76 66 69 72 61 52 50 38 31 38 39 48 55 61 61 59 52 50 56 53 52 50
68 99 95 97 71 13 9 8 7 6 7 10 22 17 21 22 29 26 27 36 60 46 37 33 41 50 76 84 79 80 80 81 62 48 43 26 27 32 38 40 49 45 48 55 54 44 45 48 52
72 100 99 96 73 19 13 8 6 8 7 8 12 15 24 29 29 29 31 32 52 58 36 37 40 51 74 71 64 69 94 91 73 56 46 34 42 38 44 46 36 35 39 38 41 42 44 50 52
97 94 96 100 71 15 10 5 6 10 17 12 10 11 18 40 41 34 38 40 46 51 38 38 36 45 51 51 42 60 79 95 86 71 49 44 36 41 34 35 32 32 39 46 49 50 48 46 43
87 90 100 100 73 7 5 6 9 8 17 25 31 16 18 35 42 50 44 40 40 45 47 33 44 40 44 40 43 54 92 87 82 82 55 55 58 58 64 50 39 33 43 47 41 37 37 35 42
89 54 90 26 20 7 8 8 14 24 31 33 38 41 24 17 28 46 56 58 43 39 38 51 35 49 45 43 44 53 87 85 86 79 62 69 82 75 63 77 67 56 39 43 49 46 46 48 41
84 62 43 10 17 13 24 35 30 25 22 28 27 30 48 38 30 42 61 64 65 61 43 44 48 37 51 45 38 73 88 95 92 87 84 80 93 96 72 53 56 50 49 38 33 34 44 52 49
85 94 18 7 14 35 39 23 11 41 47 42 36 27 44 48 47 45 42 39 45 64 62 42 50 39 53 42 36 74 94 87 90 91 88 91 99 91 99 70 70 80 65 62 34 43 55 51 46
85 26 6 6 9 61 24 26 56 49 61 63 64 63 66 56 47 44 48 47 48 56 66 61 45 56 52 36 32 62 76 99 91 92 98 98 96 97 92 76 75 81 85 96 64 33 46 52 38
96 92 98 28 18 27 71 83 61 60 66 68 68 65 65 71 63 42 48 52 99 70 82 73 58 55 54 47 29 61 68 86 96 96 98 97 97 91 98 90 58 55 95 98 80 60 67 52 60
77 88 95 75 32 22 35 100 58 54 60 67 69 85 78 92 97 69 57 60 65 69 70 78 80 60 61 56 33 46 69 61 72 76 72 83 89 86 96 92 53 44 84 94 98 66 89 55 50
88 83 76 76 97 20 98 100 39 56 78 78 82 82 90 81 77 83 62 67 58 62 76 81 88 76 64 56 55 32 52 56 54 46 44 48 48 50 48 49 46 42 74 89 95 93 92 97 58
93 76 70 78 42 26 86 89 49 52 79 67 66 74 88 81 62 39 38 52 59 65 63 85 86 92 74 70 68 49 47 40 43 42 39 34 29 24 37 25 28 27 33 44 51 70 79 90 97
83 69 75 27 8 14 93 74 56 46 55 53 61 70 69 76 60 44 42 49 66 69 79 82 88 80 80 72 76 69 62 47 44 43 34 27 28 32 30 31 32 32 32 32 28 46 48 68 86
70 68 76 72 20 30 60 90 93 48 35 44 56 70 73 69 64 52 50 59 72 67 60 74 87 91 79 73 75 70 69 66 54 41 32 32 39 46 42 31 36 36 34 42 38 37 39 31 38
89 75 34 47 65 96 32 62 73 60 28 52 58 67 74 77 72 61 58 63 78 73 98 82 84 84 78 74 75 72 64 67 59 49 42 42 38 38 32 27 35 58 53 57 50 57 57 53 53
86 76 59 71 75 58 61 52 81 48 43 53 60 59 65 79 75 77 63 66 60 78 74 73 81 95 95 76 84 75 59 57 68 72 60 57 42 35 30 33 47 69 72 70 70 67 73 80 86
80 46 65 70 62 51 78 52 57 89 94 58 63 55 59 79 91 94 68 58 69 74 74 75 79 87 72 60 67 74 68 67 78 71 79 71 60 49 50 50 54 57 54 60 69 77 76 78 88
50 67 71 78 84 65 70 36 59 66 53 58 52 50 56 77 80 90 65 57 77 73 69 74 81 78 75 70 60 75 91 78 78 71 72 68 65 72 74 72 80 90 89 76 79 77 75 80 84
72 62 70 85 52 55 46 48 82 57 47 52 48 51 56 75 72 73 59 56 82 79 86 92 76 72 58 51 45 39 46 64 67 65 68 73 56 82 85 72 66 62 61 36 44 66 60 57 78
78 63 55 42 35 29 31 61 47 68 48 20 18 21 47 66 76 62 45 50 81 86 65 60 45 36 31 22 12 11 16 19 62 57 52 40 38 13 9 23 32 34 25 9 5 40 31 43 35
71 60 47 35 38 47 51 70 98 81 56 25 18 15 26 41 64 75 65 78 96 75 45 29 30 26 18 11 5 3 7 5 8 18 8 3 2 3 3 3 3 3 3 3 3 3 3 16 22
53 59 49 48 63 48 46 57 78 89 43 27 12 10 22 38 49 68 79 80 76 74 46 45 35 20 13 8 4 3 3 3 4 4 4 4 5 5 5 6 6 6 6 6 7 7 7 7 6
81 58 50 43 45 56 58 75 88 79 69 22 22 12 30 43 47 47 68 72 68 69 57 48 32 22 16 7 4 4 4 4 4 5 6 6 8 9 10 10 10 10 10 10 9 8 7 11 12
Wind_Speed
13 15 16 16 30 10 12 12 11 11 11 9 7 6 5 5 5 7 7 9 8 6 7 10 11 11 11 10 12 13 11 12 15 15 14 14 13 13 13 12 11 10 9 10 9 10 10 9 8
11 15 12 23 13 8 11 12 10 9 10 11 10 7 5 5 5 6 5 9 9 6 7 10 11 12 11 11 10 12 12 12 13 14 13 12 14 12 10 10 9 9 7 6 6 7 8 8 8
14 14 11 11 12 11 11 12 11 10 10 9 8 7 7 6 6 6 5 7 9 6 6 9 9 11 12 12 10 10 11 11 12 12 12 11 12 12 10 9 8 9 9 6 6 6 7 8 8
13 11 19 10 13 11 11 12 12 12 11 11 9 7 7 7 6 6 6 6 8 7 6 7 8 9 9 12 11 9 10 11 10 9 10 10 10 10 9 8 8 9 8 8 9 9 9 7 6
10 26 15 10 11 9 10 10 11 12 13 11 9 8 7 7 6 6 7 8 8 7 6 6 7 6 5 6 10 9 9 10 10 10 10 10 11 11 9 8 8 9 8 8 9 9 10 8 7
25 12 6 6 9 8 9 10 11 11 11 12 11 7 5 6 8 5 7 8 9 7 6 6 5 5 6 4 5 7 8 9 9 10 9 9 10 10 10 11 9 8 9 9 10 9 8 6 4
15 4 8 12 7 6 7 10 10 10 10 10 10 8 5 5 8 5 5 8 9 8 6 5 5 4 7 6 7 5 5 7 9 10 10 9 10 11 11 10 10 9 8 9 10 9 8 6 5
17 10 9 7 7 5 6 8 8 8 9 8 7 5 5 2 4 7 6 8 10 9 7 5 5 4 8 8 7 4 3 4 6 8 10 10 10 12 13 12 10 11 10 9 10 10 10 9 8
24 8 5 2 4 4 5 6 6 7 8 8 6 4 3 1 2 5 7 9 10 10 9 7 5 6 7 6 3 2 3 5 7 8 9 10 9 10 12 11 11 11 11 11 11 10 9 10 10
16 5 5 5 3 1 3 4 5 8 9 9 6 4 3 1 1 2 3 7 9 9 9 8 7 6 4 1 2 3 5 3 9 10 9 10 10 9 10 10 10 10 9 8 8 9 9 9 10
13 3 5 3 6 2 2 3 6 7 12 10 12 12 3 0 1 1 1 4 7 8 8 8 7 6 3 1 1 2 4 4 12 13 11 12 10 7 7 8 8 8 7 7 7 8 9 8 7
2 4 6 4 2 4 4 7 11 12 11 12 12 12 8 2 1 1 2 3 5 5 7 7 7 6 4 2 1 1 3 6 11 12 13 9 7 6 5 5 6 6 4 4 5 5 5 5 5
3 3 3 0 4 5 9 12 14 12 11 11 8 9 9 7 4 2 2 2 3 4 6 8 8 7 5 3 2 2 5 7 11 12 11 9 7 4 7 7 7 6 4 2 3 3 3 3 3
5 4 4 1 2 7 9 10 13 18 18 16 12 8 6 5 3 3 4 5 4 3 6 7 8 9 7 6 3 3 4 7 10 14 14 11 8 3 7 8 7 5 2 1 2 3 2 3 3
2 0 4 4 5 8 17 4 16 17 19 19 18 16 13 10 6 5 4 5 4 4 5 8 9 10 8 7 5 5 3 6 11 16 12 10 6 3 7 10 6 2 4 6 3 3 2 1 1
5 4 14 3 9 7 14 15 12 17 16 16 17 16 18 15 11 6 4 6 11 1 10 8 10 11 11 7 6 5 3 3 3 14 11 10 11 8 12 13 11 7 4 1 3 3 3 3 3
4 13 5 15 13 9 6 11 11 14 16 20 25 18 16 15 7 3 3 5 5 6 5 8 11 12 13 10 7 5 5 3 4 7 8 9 7 11 11 13 9 8 9 3 7 5 1 3 4
12 8 5 4 12 10 5 10 7 12 18 20 26 26 16 19 19 10 5 4 8 6 3 5 9 14 14 11 10 7 5 5 2 2 3 4 6 6 6 7 7 6 7 12 10 4 4 4 10
4 9 4 10 9 7 4 5 8 8 14 20 23 23 17 15 10 11 5 4 5 6 4 1 6 12 15 14 12 11 8 7 7 5 2 1 2 2 3 3 3 3 4 4 4 3 4 5 5
7 3 9 10 3 3 7 3 5 8 13 20 21 19 20 18 6 4 7 4 5 8 8 2 4 11 14 14 13 12 10 9 8 8 7 5 4 3 2 2 3 4 4 5 4 6 7 6 4
5 8 8 11 6 3 5 8 6 11 14 16 20 23 21 19 11 3 4 5 5 9 11 9 3 10 13 13 13 12 12 11 11 10 10 10 9 8 8 8 8 8 9 9 9 9 9 10 12
13 7 16 6 3 17 11 15 27 10 14 12 15 22 24 17 12 9 5 4 1 8 6 12 1 7 11 9 11 14 13 15 15 15 15 13 12 12 13 11 11 12 12 13 13 13 12 14 17
15 10 9 7 4 9 9 7 24 26 19 11 17 21 25 15 14 12 11 6 3 2 3 7 12 13 3 9 7 13 17 18 18 18 16 16 16 16 15 14 14 13 14 16 15 16 17 19 21
19 14 5 3 3 6 12 6 10 12 11 19 20 20 24 18 17 16 15 8 2 5 3 6 8 6 6 5 7 11 18 18 16 20 15 15 16 17 18 18 17 16 17 18 18 18 17 18 22
19 7 6 12 11 2 3 11 13 25 22 19 20 17 24 19 16 16 16 7 5 4 2 2 2 2 4 6 11 10 11 8 10 15 15 16 14 15 17 18 18 15 15 16 19 18 19 19 20
14 13 14 10 7 11 14 9 19 22 19 20 19 18 22 19 4 8 10 8 8 7 4 5 6 7 10 12 11 13 12 10 8 8 9 9 11 12 15 16 17 17 17 16 17 18 17 20 19
12 17 12 13 11 12 10 16 20 18 21 20 21 19 19 18 8 8 7 6 7 7 3 4 6 9 11 11 13 14 17 12 8 9 7 9 13 12 14 13 14 16 19 21 17 19 17 19 21
19 15 10 6 7 10 12 17 14 15 23 29 26 22 17 15 11 8 6 7 9 6 8 6 9 11 13 14 13 12 13 11 8 10 12 11 11 12 13 14 16 17 18 18 19 21 21 22 22
15 16 12 12 14 14 12 24 25 20 31 30 27 22 18 13 13 8 10 9 8 9 10 11 13 13 15 16 15 11 9 9 10 11 13 14 14 15 17 17 19 20 23 24 24 24 25 26 26
20 15 12 12 9 20 13 23 12 22 28 31 24 20 16 12 9 8 9 12 11 13 15 15 15 15 16 16 14 14 13 13 14 15 16 17 18 19 20 21 23 24 26 27 27 26 27 27 28
Wind_Direction
68 67 64 48 47 47 41 41 45 55 53 63 66 58 69 80 78 117 131 119 98 81 80 66 62 74 79 84 89 89 90 99 105 111 111 108 106 112 114 117 114 111 113 118 122 116 107 102 100
76 71 65 63 58 45 47 38 39 61 59 60 67 73 60 74 97 123 138 127 108 92 92 78 70 74 84 88 93 95 94 96 102 104 104 103 106 109 111 111 113 109 108 111 118 119 112 112 111
69 61 52 61 68 57 52 47 48 52 59 73 72 65 66 90 97 118 133 133 114 103 109 93 79 72 80 83 83 91 93 93 97 103 108 108 105 108 110 113 110 110 110 109 113 132 136 127 119
64 65 61 63 54 48 51 55 62 61 63 67 71 72 72 87 103 117 138 136 125 114 120 113 93 77 69 76 80 89 99 98 96 100 104 112 120 119 127 128 122 111 118 127 133 139 147 124 98
75 52 29 37 42 34 47 62 68 70 65 67 69 73 67 89 109 123 148 144 130 124 127 134 120 100 77 61 77 80 92 100 101 96 95 93 97 105 111 117 124 118 109 120 128 128 134 125 102
62 65 56 37 42 32 45 69 73 66 63 63 67 71 71 92 111 131 160 166 146 139 139 144 148 129 102 91 108 93 92 104 103 95 90 92 96 99 103 107 119 117 107 104 108 117 128 129 122
80 37 78 14 19 19 55 58 68 64 68 63 62 64 70 101 111 135 173 177 164 153 151 149 153 133 106 122 145 111 102 101 111 109 96 92 101 104 110 109 114 116 110 103 102 108 116 111 104
95 54 24 49 318 1 38 59 64 68 75 71 66 64 65 86 131 143 181 182 176 169 165 150 152 133 114 108 117 137 137 126 114 115 111 97 99 102 107 108 116 117 117 116 111 111 105 101 98
79 90 75 337 22 331 358 40 39 42 49 59 56 69 73 35 158 152 183 193 188 181 176 163 156 147 130 113 83 61 65 170 151 129 124 113 104 101 102 107 114 110 109 108 110 111 111 105 99
84 179 74 63 72 335 354 20 17 32 34 30 25 18 60 124 175 135 179 202 196 191 188 180 163 165 159 92 21 19 3 137 180 147 134 132 119 109 106 111 110 106 106 102 102 106 104 104 99
105 112 90 124 90 63 51 25 30 26 28 22 16 355 19 294 41 42 282 216 216 209 198 197 189 171 169 204 303 26 17 88 135 166 154 135 129 125 120 113 107 106 107 113 98 102 100 99 98
26 131 130 155 82 76 32 34 33 35 30 29 29 18 353 312 198 229 274 256 229 235 217 210 210 197 188 185 152 84 51 139 145 152 153 151 138 144 133 151 135 113 111 121 124 127 117 106 101
157 144 138 134 57 26 43 43 48 35 26 30 24 24 19 4 339 283 198 194 246 253 245 232 217 216 201 211 158 117 102 166 155 163 150 151 146 148 172 152 142 133 126 135 130 125 122 122 119
227 193 220 118 43 26 46 35 18 36 39 41 41 30 14 356 14 318 313 297 272 244 248 246 234 220 207 200 186 175 143 166 164 163 154 147 163 132 147 176 156 133 142 177 198 175 194 193 165
207 294 343 339 9 22 329 71 51 50 50 37 29 19 2 317 305 317 335 332 311 283 258 248 242 225 207 195 198 207 162 179 191 176 160 147 118 151 120 156 166 80 344 234 216 203 205 241 267
142 269 255 350 339 359 332 56 36 47 41 20 7 1 1 343 244 249 313 347 292 41 272 238 244 229 215 200 209 218 238 264 197 173 181 168 138 117 132 123 109 73 22 186 197 190 209 210 223
206 282 95 316 320 325 349 340 19 19 19 8 358 357 10 326 294 70 354 348 14 334 298 256 230 237 227 210 212 231 240 273 19 63 54 78 101 66 87 103 88 58 37 354 176 138 211 213 218
184 278 303 307 307 301 326 331 354 14 15 11 356 359 3 0 355 49 30 20 345 338 305 247 229 232 225 212 207 217 238 264 291 29 69 93 92 87 64 66 66 48 21 41 63 112 350 304 227
177 211 244 278 271 296 253 244 296 358 17 8 356 4 2 348 12 34 39 50 10 352 353 228 177 209 219 209 208 211 214 234 252 251 240 202 144 121 101 55 33 13 9 9 4 348 341 27 249
229 249 254 276 277 277 261 276 295 338 6 4 0 354 349 353 333 37 44 61 44 39 47 29 226 187 206 221 214 214 226 235 252 267 268 265 257 254 230 239 269 275 275 272 283 300 314 316 293
228 244 261 255 264 309 254 274 208 331 331 354 348 345 331 327 334 289 88 78 42 22 23 22 200 198 209 219 225 227 230 243 247 246 252 256 256 258 261 264 271 281 276 279 278 275 275 280 281
263 211 253 255 279 277 52 304 317 17 320 334 341 337 335 299 310 253 202 166 303 14 31 22 221 204 211 225 242 247 239 235 239 245 245 249 258 263 269 276 280 283 292 287 283 286 288 280 272
236 252 240 265 292 312 287 9 308 323 308 312 340 338 334 300 279 246 228 217 273 351 65 65 73 77 111 220 253 257 250 252 246 241 242 250 257 262 267 269 268 273 280 281 284 286 277 268 271
221 218 247 255 10 294 263 312 303 306 304 308 329 333 343 313 280 236 219 219 268 149 113 87 89 87 55 32 343 304 274 245 257 245 250 255 257 262 264 267 273 274 278 285 280 278 279 279 277
211 205 236 217 250 289 256 303 259 262 278 299 331 328 345 338 302 212 208 205 195 208 275 341 22 43 1 348 347 351 351 253 263 249 253 261 271 279 276 270 268 268 277 286 281 273 278 281 279
213 196 233 279 265 270 318 276 261 290 299 308 326 335 341 345 309 205 214 195 207 228 275 283 311 345 335 335 319 308 306 304 265 252 247 245 254 274 272 256 258 264 260 282 298 262 280 289 282
227 237 230 246 258 281 273 264 287 291 309 315 332 335 341 356 295 259 236 224 235 244 285 298 329 331 326 324 316 301 293 300 257 251 263 274 285 292 286 273 271 269 268 288 277 271 276 284 284
198 221 216 235 260 249 250 249 253 272 304 312 318 328 332 348 339 277 255 255 260 297 313 323 324 325 321 317 307 295 288 294 272 266 274 277 283 289 286 286 284 283 283 285 284 282 282 283 283
204 222 221 218 253 250 288 279 292 308 307 311 314 322 325 329 346 326 249 245 254 294 305 314 307 307 308 300 293 280 272 282 288 286 285 283 281 279 280 280 280 282 282 282 281 280 279 283 284
208 223 241 251 262 241 227 297 306 302 306 308 319 319 321 319 312 326 311 259 264 290 298 300 293 295 292 286 281 278 278 277 275 277 278 279 281 281 281 281 282 282 281 280 279 280 279 278 279